Regional Weather Roundup
Issued by NWS

Home | Current Version | Previous Version | Graphics & Text | Print | Product List | Glossary On
Versions: 1 2 3 4 5 6 7 8 9 10 11 12 13 14 15 16 17 18 19 20 21 22 23 24 25 26 27 28 29 30 31 32 33 34 35 36 37 38 39 40 41 42 43 44 45 46 47 48 49 50
000
ASUS43 KOAX 101802
RWRNE

WEATHER ROUNDUP FOR NEBRASKA
NATIONAL WEATHER SERVICE OMAHA NE
100 PM CDT THU JUL 10 2014

NOTES: SATELLITE DATA IS BEING USED TO AUGMENT CLOUD COVER ABOVE
       12000 FEET.
       "FAIR" INDICATES FEW OR NO CLOUDS BELOW 12,000 FEET WITH NO
       SIGNIFICANT WEATHER AND/OR OBSTRUCTIONS TO VISIBILITY.

  * THESE STATIONS DO NOT REPORT WEATHER SUCH AS RAIN...SNOW OR FOG.

NEZ001>004-019>022-054>056-101900-
NEBRASKA PANHANDLE

CITY           SKY/WX    TMP DP  RH WIND       PRES   REMARKS
SCOTTSBLUFF    SUNNY     89  56  32 W9G20     29.93F
6HR MIN TEMP:  59; 6HR MAX TEMP:  90;

ALLIANCE       SUNNY     88  56  33 SW10G22   29.93F
6HR MIN TEMP:  61; 6HR MAX TEMP:  88;

CHADRON        SUNNY     88  59  37 W13       29.86F
6HR MIN TEMP:  62; 6HR MAX TEMP:  89;

KIMBALL        SUNNY     88  48  24 NW6       30.00F
SIDNEY         SUNNY     89  55  31 S14       29.99F
6HR MIN TEMP:  61; 6HR MAX TEMP:  89;

$$

NEZ057>060-069>072-079>082-101900-
SOUTHWEST NEBRASKA

CITY           SKY/WX    TMP DP  RH WIND       PRES   REMARKS
NORTH PLATTE   MOSUNNY   81  66  60 S14G21    29.94F
6HR MIN TEMP:  64; 6HR MAX TEMP:  81;

IMPERIAL       SUNNY     84  61  45 S12       29.97F
6HR MIN TEMP:  65; 6HR MAX TEMP:  85;

LEXINGTON      SUNNY     83  67  58 S20       29.97F
MCCOOK           N/A     84  67  56 S16       29.95F
6HR MIN TEMP:  65; 6HR MAX TEMP:  84;

OGALLALA       SUNNY     82  61  48 S14G20    29.95F
$$

NEZ005>010-023>029-035>040-094-101900-
NORTH CENTRAL NEBRASKA

CITY           SKY/WX    TMP DP  RH WIND       PRES   REMARKS
VALENTINE      PTSUNNY   82  65  56 S16       29.90S
6HR MIN TEMP:  61; 6HR MAX TEMP:  82;

AINSWORTH      PTSUNNY   80  65  59 S18G25    29.91S
BROKEN BOW     MOSUNNY   80  68  66 S14G28    29.96F
6HR MIN TEMP:  64; 6HR MAX TEMP:  81;

O`NEILL        MOSUNNY   81  65  57 S17G25    29.94F
ORD            PTSUNNY   78  67  68 S12       29.96F
6HR MIN TEMP:  62; 6HR MAX TEMP:  78;

THEDFORD       MOSUNNY   83  64  53 S18G26    29.94S
$$

NEZ041-046>049-061>064-073>077-083>087-101900-
SOUTH CENTRAL NEBRASKA

CITY           SKY/WX    TMP DP  RH WIND       PRES   REMARKS
GRAND ISLAND   MOSUNNY   79  68  69 SE12      30.00F
6HR MIN TEMP:  65; 6HR MAX TEMP:  79;

AURORA         MOSUNNY   77  69  76 SE12G18   29.99F
HASTINGS       MOSUNNY   80  64  58 S17       29.99F
6HR MIN TEMP:  68; 6HR MAX TEMP:  80;

HEBRON         SUNNY     83  66  57 S10G16    30.01F
HOLDREGE       MOSUNNY   79  64  60 S15G21    30.00R
KEARNEY *      MOSUNNY   81  68  65 S10G18    30.00S
YORK           PTSUNNY   77  70  78 S13       30.01F
$$

NEZ011>018-030>034-042>045-101900-
NORTHEAST NEBRASKA

CITY           SKY/WX    TMP DP  RH WIND       PRES   REMARKS
NORFOLK        SUNNY     81  66  60 S15G26    29.97F
6HR MIN TEMP:  65; 6HR MAX TEMP:  81;

ALBION         SUNNY     77  65  65 S14       29.99S
BLAIR          SUNNY     81  65  58 SE13G21   30.02F
FREMONT        SUNNY     83  66  55 SE16G22   30.01F
TEKAMAH        SUNNY     85  65  51 S17G29    29.99F
6HR MIN TEMP:  64; 6HR MAX TEMP:  86;

WAYNE          SUNNY     83  67  58 S20       29.98F
$$

NEZ050>053-065>068-078-088>093-101900-
SOUTHEAST NEBRASKA

CITY           SKY/WX    TMP DP  RH WIND       PRES   REMARKS
LINCOLN        SUNNY     84  66  54 S18       30.01F
6HR MIN TEMP:  67; 6HR MAX TEMP:  84;

OMAHA EPPLEY   MOSUNNY   83  64  52 SE21G29   30.01F
6HR MIN TEMP:  68; 6HR MAX TEMP:  83;

BEATRICE       SUNNY     79  65  61 S14G20    30.02F
FALLS CITY     SUNNY     83  66  56 SE14      30.04F
6HR MIN TEMP:  65; 6HR MAX TEMP:  83;

NEBRASKA CITY  SUNNY     80  67  63 S13G20    30.04F
PLATTSMOUTH    SUNNY     81  63  55 SE14G22   30.03F
$$

NEZ044-045-051>053-067-101900-
OMAHA AREA

CITY           SKY/WX    TMP DP  RH WIND       PRES   REMARKS
OMAHA EPPLEY   MOSUNNY   83  64  52 SE21G29   30.01F
6HR MIN TEMP:  68; 6HR MAX TEMP:  83;

BLAIR          SUNNY     81  65  58 SE13G21   30.02F
FREMONT        SUNNY     83  66  55 SE16G22   30.01F
MILLARD        SUNNY     82  67  60 SE15G23   30.01F
OFFUTT AFB     SUNNY     83  67  59 SE17G23   30.02F
PLATTSMOUTH    SUNNY     81  63  55 SE14G22   30.03F
WAHOO          FAIR      83  66  57 SE15G24   30.00F
$$



USA.gov is the U.S. government's official web portal to all federal, state and local government web resources and services.